#timestamp,LO_Frequency,Hit,StdDev 
1512198015.3,286046998.6,N
1512198035.1,286047000.7,N
1512198055.8,286046998.1,N
1512198075.7,286047000.7,N
1512198095.5,286046999.4,N
1512198115.4,286046996.9,N
1512198135.2,286046998.4,N
1512198155.0,286046996.8,N
1512198155.9,286046996.8,N
1512198175.8,286046996.8,N
1512198195.6,286046998.8,N
1512198215.5,286046999.0,N
1512198235.3,286046998.9,N
1512198255.1,286046998.5,N
1512198275.9,286047000.7,N
1512198295.7,286047002.2,N
1512198315.6,286047002.6,N
1512198335.4,286047002.7,N
1512198355.2,286047002.3,N
1512198375.1,286047002.6,N
1512198376.0,286047002.6,N
1512198395.8,286047002.4,N
1512198415.7,286047002.8,N
1512198435.5,286047001.1,N
1512198455.3,286047000.8,N
1512198475.2,286046998.8,N
1512198495.9,286046998.4,N
1512198515.7,286047000.5,N
1512198535.6,286046998.2,N
1512198555.4,286047001.1,N
1512198575.3,286047000.6,N
1512198595.1,286047002.8,N
1512198596.0,286047002.8,N
1512198615.8,286047002.3,N
1512198635.7,286047000.3,N
1512198655.5,286047001.1,N
1512198675.3,286046998.5,N
1512198695.2,286046998.2,N
1512198715.0,286046998.1,N
1512198715.9,286046998.1,N
1512198735.8,286047000.7,N
1512198755.6,286047001.2,N
1512198775.4,286046998.8,N
1512198795.3,286046999.5,N
1512198815.1,286046998.7,N
1512198835.9,286047000.8,N
1512198855.7,286047000.5,N
1512198875.5,286047000.0,N
1512198895.4,286047002.4,N
1512198915.2,286047002.2,N
1512198935.0,286047000.5,N
1512198935.9,286047000.5,N
1512198955.8,286047000.2,N
1512198975.6,286047001.0,N
1512198995.5,286047002.3,N
1512199015.3,286047001.4,N
1512199035.1,286046999.7,N
1512199055.9,286046999.9,N
1512199075.7,286047002.8,N
1512199095.6,286047000.5,N
1512199115.4,286047000.7,N
1512199135.2,286046998.4,N
1512199155.1,286046998.7,N
1512199156.0,286046998.7,N
1512199175.8,286047002.8,N
1512199195.6,286047001.9,N
1512199215.5,286047002.5,N
1512199235.3,286047000.2,N
1512199255.2,286047001.0,N
1512199275.9,286047001.0,N
1512199295.7,286046998.7,N
1512199315.6,286046998.1,N
1512199335.4,286047002.7,N
1512199355.2,286047001.8,N
1512199375.1,286047001.6,N
1512199376.0,286047001.6,N
1512199395.8,286047001.6,N
1512199415.7,286047007.1,Y
1512199435.5,286047004.7,P
1512199455.3,286047005.5,N
1512199475.2,286047006.0,N
1512199495.0,286047003.2,N
1512199495.9,286047003.2,N
1512199515.8,286047004.1,N
1512199535.6,286047003.9,N
1512199555.4,286047005.9,Y
1512199575.3,286047000.6,P
1512199595.1,286047000.3,N
1512199615.9,286047002.8,N
1512199635.7,286046998.5,N
1512199655.5,286046999.4,N
1512199675.4,286046998.7,N
1512199695.2,286046999.6,N
1512199715.0,286046997.4,N
1512199716.0,286046997.4,N
1512199735.8,286046996.8,N
1512199755.6,286046994.9,N
1512199775.5,286046997.8,N
1512199795.3,286046999.0,N
1512199815.1,286046996.6,N
1512199835.9,286046997.3,N
1512199855.7,286046997.5,N
1512199875.6,286046997.9,N
1512199895.4,286046995.6,N
1512199915.2,286046997.8,N
1512199935.1,286046997.8,N
1512199936.0,286046997.8,N
1512199955.8,286046997.8,N
1512199975.6,286046997.7,N
1512199995.5,286046997.6,N
1512200015.3,286046997.8,N
1512200035.2,286046996.0,N
1512200055.9,286046993.5,Y
1512200075.7,286046999.2,P
1512200095.6,286046999.5,N
1512200115.4,286046996.9,P
1512200135.2,286046999.3,N
1512200155.1,286046998.9,N
1512200156.0,286046998.9,N
1512200175.8,286046996.9,Y
1512200195.7,286046996.5,P
1512200215.5,286046996.6,P
1512200235.3,286047001.0,N
1512200255.2,286046998.6,N
1512200275.0,286046998.8,N
1512200275.9,286046998.8,N
1512200295.8,286047001.2,N
1512200315.6,286047000.8,N
1512200335.4,286047000.6,N
1512200355.3,286046999.3,N
1512200375.1,286046998.9,N
1512200395.8,286046999.0,N
1512200415.7,286046998.1,N
1512200435.5,286047001.2,N
1512200455.4,286047004.4,N
1512200475.2,286047003.5,N
1512200495.0,286047003.6,N
1512200495.9,286047003.6,N
1512200515.8,286047002.5,N
1512200535.6,286047002.3,N
1512200555.5,286047002.1,N
1512200575.3,286047000.0,N
1512200595.1,286046998.1,N
1512200615.9,286047001.0,N
1512200635.7,286047000.7,N
1512200655.6,286047000.3,N
1512200675.4,286047000.9,N
1512200695.2,286047000.7,N
1512200715.1,286046998.2,N
1512200716.0,286046998.2,N
1512200735.8,286047000.8,N
1512200755.6,286046998.9,N
1512200775.5,286046998.6,N
1512200795.3,286046998.9,N
1512200815.2,286046998.5,N
1512200835.9,286047002.3,N
1512200855.7,286046999.7,N
1512200875.6,286047000.1,N
1512200895.4,286047002.7,N
1512200915.2,286046998.5,N
1512200935.1,286046998.6,N
1512200936.0,286046998.6,N
1512200955.8,286047000.5,N
1512200975.7,286047000.0,N
1512200995.5,286047000.4,N
1512201015.3,286047000.9,N
1512201035.2,286046998.4,N
1512201055.0,286047000.0,N
1512201055.9,286047000.0,N
1512201075.8,286046998.6,N
1512201095.6,286046996.5,N
1512201115.4,286046998.7,N
1512201135.3,286047000.7,N
1512201155.1,286046998.4,N
1512201175.8,286046998.4,N
1512201195.7,286046998.9,N
1512201215.5,286046999.2,N
1512201235.4,286046999.3,N
1512201255.2,286046996.5,N
1512201275.0,286046998.6,N
1512201275.9,286046998.6,N
1512201295.8,286046998.3,N
1512201315.6,286046999.3,N
1512201335.5,286046996.5,N
1512201355.3,286046996.6,N
1512201375.1,286046997.0,N
1512201395.9,286046999.6,N
1512201415.7,286046996.5,N
1512201435.5,286046998.8,N
1512201455.4,286047002.8,N
1512201475.2,286047000.7,N
1512201495.1,286046999.1,N
1512201496.0,286046999.1,N
1512201515.8,286046999.0,N
1512201535.6,286047000.7,N
1512201555.5,286047000.7,N
1512201575.3,286047001.0,N
1512201595.2,286046996.9,N
